FW9671 Weather Reports


Display with metric or nautical units.
time (UTC)temp
F
wind
direction
speed
MPH
gust
MPH
rain 1hr
in
rain 24hr
in
rain mn
in
humidity
%
barometer
mb
20260509171618 66 356 1.0 3.0 0.00 0.00 0.00 48 1020.0
20260509170043 65 60 1.0 4.0 0.00 0.00 0.00 50 1020.2
20260509164552 64 34 0.0 3.0 0.00 0.00 0.00 51 1020.5
20260509163047 62 30 1.0 4.0 0.00 0.00 0.00 54 1020.6
20260509161553 60 0 0.0 3.0 0.00 0.00 0.00 57 1020.7
20260509160045 59 49 0.0 3.0 0.00 0.00 0.00 58 1020.9
20260509154551 58 353 0.0 2.0 0.00 0.00 0.00 61 1021.1
20260509153050 56 0 0.0 2.0 0.00 0.00 0.00 62 1021.1
20260509151548 55 0 0.0 1.0 0.00 0.00 0.00 64 1020.9
20260509150045 53 0 0.0 4.0 0.00 0.00 0.00 68 1021.2
20260509144545 52 14 0.0 2.0 0.00 0.00 0.00 68 1021.2
20260509143044 51 0 0.0 2.0 0.00 0.00 0.00 71 1021.4
20260509141548 51 0 0.0 0.0 0.00 0.00 0.00 73 1021.1
20260509140050 48 0 0.0 2.0 0.00 0.00 0.00 77 1021.3
20260509134544 48 111 0.0 1.0 0.00 0.00 0.00 77 1021.3
20260509133046 46 0 0.0 0.0 0.00 0.00 0.00 81 1021.4
20260509131548 44 0 0.0 0.0 0.00 0.00 0.00 84 1020.9
20260509130056 44 0 0.0 0.0 0.00 0.00 0.00 84 1020.7
20260509124544 44 0 0.0 0.0 0.00 0.00 0.00 84 1020.6
20260509123050 45 0 0.0 0.0 0.00 0.00 0.00 82 1020.5
20260509121544 45 0 0.0 0.0 0.00 0.00 0.00 81 1020.6
20260509120048 46 85 0.0 0.0 0.00 0.00 0.00 81 1020.7
20260509114544 46 2 0.0 1.0 0.00 0.00 0.00 80 1020.5
20260509113043 46 0 0.0 0.0 0.00 0.00 0.00 79 1020.6
20260509111547 47 0 0.0 0.0 0.00 0.00 0.00 79 1020.5
20260509110040 47 0 0.0 1.0 0.00 0.00 0.00 78 1020.5
20260509104546 48 0 0.0 1.0 0.00 0.00 0.00 77 1020.7
20260509103045 48 0 0.0 1.0 0.00 0.00 0.00 76 1020.6
20260509101544 49 0 0.0 0.0 0.00 0.00 0.00 75 1020.6
20260509100047 50 0 0.0 3.0 0.00 0.00 0.00 74 1020.7
20260509094546 50 236 1.0 3.0 0.00 0.00 0.00 72 1020.7